Location: Artiguedieu
(43.5000°N, 0.5454°E)
Time: 16:44:16
(UTC+00:00)

HuskySat-1 - Visible Passes

Search period start: 25 September 2021 00:00
Search period end: 05 October 2021 00:00
Orbit: 447 x 460 km, 51.6° (Epoch: 24 September)

Date Brightness Start Highest point End Pass type
(mag) Time Alt. Az. Time Alt. Az. Time Alt. Az.
25 Sep ? 19:11:49 10° S 19:11:56 10° SSE 19:11:56 10° SSE visible
26 Sep ? 18:36:15 10° SSE 18:37:35 12° SE 18:37:54 12° SE visible
26 Sep ? 20:11:01 10° SW 20:11:37 14° SW 20:11:37 14° SW visible
27 Sep ? 19:34:31 10° SW 19:37:20 48° SSW 19:37:20 48° SSW visible
28 Sep ? 18:58:03 10° SW 19:01:30 47° SE 19:02:49 31° E visible
28 Sep ? 20:35:49 10° W 20:36:30 14° W 20:36:30 14° W visible
29 Sep ? 18:21:39 10° SSW 18:24:57 35° SE 18:28:07 11° ENE visible
29 Sep ? 19:59:03 10° W 20:01:47 37° NW 20:01:47 37° NW visible
30 Sep ? 19:22:20 10° WSW 19:25:49 50° NNW 19:26:55 35° NNE visible
01 Oct ? 18:45:35 10° WSW 18:49:08 61° NNW 18:51:55 16° NE visible
01 Oct ? 20:24:13 10° WNW 20:25:34 17° NW 20:25:34 17° NW visible
02 Oct ? 18:08:54 10° WSW 18:12:29 77° NNW 18:16:04 10° NE visible
02 Oct ? 19:47:24 10° WNW 19:50:27 25° NNW 19:50:27 25° NNW visible
03 Oct ? 19:10:32 10° WNW 19:13:40 27° NNW 19:15:15 20° NNE visible
04 Oct ? 18:33:40 10° W 18:36:53 31° NNW 18:39:59 11° NE visible
04 Oct ? 20:12:20 10° NW 20:13:38 17° NNW 20:13:38 17° NNW visible
